Time,TemperatureF,DewpointF,PressureIn,WindDirection,WindDirectionDegrees,WindSpeedMPH,WindSpeedGustMPH,Humidity,HourlyPrecipIn,Conditions,Clouds,dailyrainin,SoftwareType,DateUTC
2013-09-22 00:00:00,52.2,48.4,30.37,SE,135,0.0,0.0,87,0.00,CLR,,0.00,WeatherDisplay:10.37,2013-09-21 22:00:00,
2013-09-22 00:05:00,52.2,48.4,30.37,SE,135,0.9,0.9,87,0.00,,,0.00,WUHU21636XXSP,2013-09-21 22:05:00,
2013-09-22 00:10:00,52.2,48.4,30.37,SE,135,1.0,1.0,87,0.00,CLR,,0.00,WeatherDisplay:10.37,2013-09-21 22:10:00,
2013-09-22 00:15:00,52.0,48.2,30.37,SE,135,0.0,0.9,87,0.00,,,0.00,WUHU21636XXSP,2013-09-21 22:15:00,
2013-09-22 00:20:00,52.0,48.2,30.37,SE,135,0.0,0.0,87,0.00,CLR,,0.00,WeatherDisplay:10.37,2013-09-21 22:20:00,
2013-09-22 00:25:00,51.6,47.8,30.37,SE,135,0.0,0.0,87,0.00,,,0.00,WUHU21636XXSP,2013-09-21 22:25:00,
2013-09-22 00:30:00,51.6,47.9,30.37,SE,135,0.0,0.0,87,0.00,CLR,,0.00,WeatherDisplay:10.37,2013-09-21 22:30:00,
2013-09-22 00:35:00,51.6,47.8,30.38,SE,135,0.0,0.0,87,0.00,,,0.00,WUHU21636XXSP,2013-09-21 22:35:00,
2013-09-22 00:40:00,51.8,48.3,30.37,NW,315,0.0,0.0,88,0.00,,,0.00,WUHU21636XXSP,2013-09-21 22:40:00,
2013-09-22 00:45:00,52.0,48.5,30.38,WNW,293,0.0,0.0,88,0.00,,,0.00,WUHU21636XXSP,2013-09-21 22:45:00,
2013-09-22 00:50:00,52.0,48.5,30.38,WNW,293,0.0,0.0,88,0.00,,,0.00,WUHU21636XXSP,2013-09-21 22:50:00,
2013-09-22 00:55:00,52.0,48.5,30.38,SE,135,0.0,0.0,88,0.00,,,0.00,WUHU21636XXSP,2013-09-21 22:55:00,
2013-09-22 01:00:00,52.0,48.5,30.38,WNW,293,1.6,1.6,88,0.00,,,0.00,WUHU21636XXSP,2013-09-21 23:00:00,
2013-09-22 01:05:00,52.0,48.5,30.38,North,0,0.0,1.6,88,0.00,,,0.00,WUHU21636XXSP,2013-09-21 23:05:00,
2013-09-22 01:10:00,52.0,48.5,30.38,SE,135,0.0,1.6,88,0.00,,,0.00,WUHU21636XXSP,2013-09-21 23:10:00,
2013-09-22 01:15:00,52.0,48.5,30.38,NW,315,1.6,1.6,88,0.00,,,0.00,WUHU21636XXSP,2013-09-21 23:15:00,
2013-09-22 01:20:00,52.0,48.5,30.38,WNW,293,0.0,1.6,88,0.00,,,0.00,WUHU21636XXSP,2013-09-21 23:20:00,
2013-09-22 01:25:00,52.0,48.5,30.38,ENE,68,0.4,1.6,88,0.00,,,0.00,WUHU21636XXSP,2013-09-21 23:25:00,
2013-09-22 01:30:00,52.2,48.7,30.38,East,90,0.0,0.4,88,0.00,,,0.00,WUHU21636XXSP,2013-09-21 23:30:00,
2013-09-22 01:35:00,52.2,48.7,30.38,NW,315,0.0,0.4,88,0.00,,,0.00,WUHU21636XXSP,2013-09-21 23:35:00,
2013-09-22 01:40:00,52.2,48.7,30.37,WNW,293,0.0,0.0,88,0.00,,,0.00,WUHU21636XXSP,2013-09-21 23:40:00,
2013-09-22 01:45:00,52.3,48.8,30.38,WNW,293,0.0,0.0,88,0.00,,,0.00,WUHU21636XXSP,2013-09-21 23:45:00,
2013-09-22 01:50:00,52.3,48.5,30.38,SSE,158,1.8,1.8,87,0.00,,,0.00,WUHU21636XXSP,2013-09-21 23:50:00,
2013-09-22 01:55:00,52.3,48.5,30.38,WNW,293,0.0,1.8,87,0.00,,,0.00,WUHU21636XXSP,2013-09-21 23:55:00,
2013-09-22 02:00:00,52.2,48.4,30.38,SSE,158,0.0,1.8,87,0.00,,,0.00,WUHU21636XXSP,2013-09-22 00:00:00,
2013-09-22 02:05:00,52.2,48.4,30.38,SE,135,0.0,0.0,87,0.00,,,0.00,WUHU21636XXSP,2013-09-22 00:05:00,
2013-09-22 02:10:00,52.0,48.2,30.38,SE,135,1.1,1.1,87,0.00,,,0.00,WUHU21636XXSP,2013-09-22 00:10:00,
2013-09-22 02:15:00,51.6,47.8,30.38,SE,135,0.9,1.1,87,0.00,,,0.00,WUHU21636XXSP,2013-09-22 00:15:00,
2013-09-22 02:20:00,51.4,47.6,30.38,SE,135,0.0,1.1,87,0.00,,,0.00,WUHU21636XXSP,2013-09-22 00:20:00,
2013-09-22 02:25:00,51.4,47.6,30.38,SE,135,0.0,0.9,87,0.00,,,0.00,WUHU21636XXSP,2013-09-22 00:25:00,
2013-09-22 02:30:00,51.1,47.3,30.38,ESE,113,0.0,0.0,87,0.00,,,0.00,WUHU21636XXSP,2013-09-22 00:30:00,
2013-09-22 02:35:00,51.1,47.3,30.38,SE,135,0.0,0.0,87,0.00,,,0.00,WUHU21636XXSP,2013-09-22 00:35:00,
2013-09-22 02:40:00,50.9,47.4,30.38,SE,135,0.0,0.0,88,0.00,,,0.00,WUHU21636XXSP,2013-09-22 00:40:00,
2013-09-22 02:45:00,50.7,47.2,30.38,WNW,293,0.0,0.0,88,0.00,,,0.00,WUHU21636XXSP,2013-09-22 00:45:00,
2013-09-22 02:50:00,50.5,47.1,30.38,WNW,293,0.0,0.0,88,0.00,,,0.00,WUHU21636XXSP,2013-09-22 00:50:00,
2013-09-22 02:55:00,50.5,47.1,30.39,WNW,293,0.0,0.0,88,0.00,,,0.00,WUHU21636XXSP,2013-09-22 00:55:00,
2013-09-22 03:00:00,50.4,47.0,30.38,WNW,293,0.0,0.0,88,0.00,,,0.00,WUHU21636XXSP,2013-09-22 01:00:00,
2013-09-22 03:05:00,50.2,46.8,30.38,WNW,293,0.0,0.0,88,0.00,,,0.00,WUHU21636XXSP,2013-09-22 01:05:00,
2013-09-22 03:10:00,50.2,46.8,30.38,WNW,293,0.0,0.0,88,0.00,,,0.00,WUHU21636XXSP,2013-09-22 01:10:00,
2013-09-22 03:15:00,50.0,46.6,30.38,NW,315,0.0,0.0,88,0.00,,,0.00,WUHU21636XXSP,2013-09-22 01:15:00,
2013-09-22 03:20:00,49.8,46.4,30.38,NW,315,0.0,0.0,88,0.00,,,0.00,WUHU21636XXSP,2013-09-22 01:20:00,
2013-09-22 03:25:00,49.8,46.4,30.38,NW,315,0.0,0.0,88,0.00,,,0.00,WUHU21636XXSP,2013-09-22 01:25:00,
2013-09-22 03:30:00,49.6,46.2,30.38,SE,135,0.0,0.0,88,0.00,,,0.00,WUHU21636XXSP,2013-09-22 01:30:00,
2013-09-22 03:35:00,49.6,46.5,30.38,ESE,113,0.0,0.0,89,0.00,,,0.00,WUHU21636XXSP,2013-09-22 01:35:00,
2013-09-22 03:40:00,49.6,46.5,30.38,ESE,113,0.0,0.0,89,0.00,,,0.00,WUHU21636XXSP,2013-09-22 01:40:00,
2013-09-22 03:45:00,49.5,46.4,30.38,ESE,113,0.0,0.0,89,0.00,,,0.00,WUHU21636XXSP,2013-09-22 01:45:00,
2013-09-22 03:50:00,49.3,46.2,30.38,ESE,113,0.0,0.0,89,0.00,,,0.00,WUHU21636XXSP,2013-09-22 01:50:00,
2013-09-22 03:55:00,49.3,46.2,30.38,ESE,113,0.0,0.0,89,0.00,,,0.00,WUHU21636XXSP,2013-09-22 01:55:00,
2013-09-22 04:00:00,49.3,46.2,30.38,SE,135,0.0,0.0,89,0.00,,,0.00,WUHU21636XXSP,2013-09-22 02:00:00,
2013-09-22 04:05:00,49.3,46.2,30.38,SE,135,0.0,0.0,89,0.00,,,0.00,WUHU21636XXSP,2013-09-22 02:05:00,
2013-09-22 04:10:00,49.3,46.2,30.38,SE,135,0.0,0.0,89,0.00,,,0.00,WUHU21636XXSP,2013-09-22 02:10:00,
2013-09-22 04:15:00,49.3,46.2,30.38,SE,135,0.0,0.0,89,0.00,,,0.00,WUHU21636XXSP,2013-09-22 02:15:00,
2013-09-22 04:20:00,49.3,46.5,30.38,SE,135,0.7,0.7,90,0.00,,,0.00,WUHU21636XXSP,2013-09-22 02:20:00,
2013-09-22 04:25:00,49.3,46.5,30.38,SE,135,0.0,0.7,90,0.00,,,0.00,WUHU21636XXSP,2013-09-22 02:25:00,
2013-09-22 04:30:00,49.1,46.3,30.37,SE,135,0.0,0.7,90,0.00,,,0.00,WUHU21636XXSP,2013-09-22 02:30:00,
2013-09-22 04:35:00,49.1,46.3,30.38,SE,135,0.0,0.0,90,0.00,,,0.00,WUHU21636XXSP,2013-09-22 02:35:00,
2013-09-22 04:40:00,48.9,46.1,30.38,SE,135,1.3,1.3,90,0.00,,,0.00,WUHU21636XXSP,2013-09-22 02:40:00,
2013-09-22 04:45:00,48.9,46.1,30.38,SE,135,0.7,1.3,90,0.00,,,0.00,WUHU21636XXSP,2013-09-22 02:45:00,
2013-09-22 04:50:00,48.9,46.1,30.38,SE,135,0.0,1.3,90,0.00,,,0.00,WUHU21636XXSP,2013-09-22 02:50:00,
2013-09-22 04:55:00,48.9,46.1,30.38,SE,135,0.0,0.7,90,0.00,,,0.00,WUHU21636XXSP,2013-09-22 02:55:00,
2013-09-22 05:00:00,48.9,46.1,30.38,SE,135,0.0,0.0,90,0.00,,,0.00,WUHU21636XXSP,2013-09-22 03:00:00,
2013-09-22 05:05:00,48.9,46.1,30.38,SE,135,0.0,0.0,90,0.00,,,0.00,WUHU21636XXSP,2013-09-22 03:05:00,
2013-09-22 05:10:00,48.9,46.1,30.38,SE,135,0.0,0.0,90,0.00,,,0.00,WUHU21636XXSP,2013-09-22 03:10:00,
2013-09-22 05:15:00,48.7,45.9,30.38,SE,135,0.0,0.0,90,0.00,,,0.00,WUHU21636XXSP,2013-09-22 03:15:00,
2013-09-22 05:20:00,48.7,45.9,30.38,SE,135,0.0,0.0,90,0.00,,,0.00,WUHU21636XXSP,2013-09-22 03:20:00,
2013-09-22 05:25:00,48.7,45.9,30.38,SE,135,1.8,1.8,90,0.00,,,0.00,WUHU21636XXSP,2013-09-22 03:25:00,
2013-09-22 05:30:00,48.6,45.8,30.37,SE,135,0.0,1.8,90,0.00,,,0.00,WUHU21636XXSP,2013-09-22 03:30:00,
2013-09-22 05:35:00,48.6,45.8,30.38,SE,135,0.0,1.8,90,0.00,,,0.00,WUHU21636XXSP,2013-09-22 03:35:00,
2013-09-22 05:40:00,48.6,45.8,30.38,SE,135,0.0,0.0,90,0.00,,,0.00,WUHU21636XXSP,2013-09-22 03:40:00,
2013-09-22 05:45:00,48.4,45.6,30.38,SE,135,0.0,0.0,90,0.00,,,0.00,WUHU21636XXSP,2013-09-22 03:45:00,
2013-09-22 05:50:00,48.4,45.6,30.38,SE,135,0.0,0.0,90,0.00,,,0.00,WUHU21636XXSP,2013-09-22 03:50:00,
2013-09-22 05:55:00,48.2,45.4,30.38,SE,135,0.0,0.0,90,0.00,,,0.00,WUHU21636XXSP,2013-09-22 03:55:00,
2013-09-22 06:00:00,48.0,45.2,30.38,SE,135,0.0,0.0,90,0.00,,,0.00,WUHU21636XXSP,2013-09-22 04:00:00,
2013-09-22 06:05:00,48.0,45.2,30.38,SE,135,0.0,0.0,90,0.00,,,0.00,WUHU21636XXSP,2013-09-22 04:05:00,
2013-09-22 06:10:00,48.0,45.2,30.38,SE,135,0.0,0.0,90,0.00,,,0.00,WUHU21636XXSP,2013-09-22 04:10:00,
2013-09-22 06:15:00,47.8,45.3,30.37,SE,135,0.0,0.0,91,0.00,,,0.00,WUHU21636XXSP,2013-09-22 04:15:00,
2013-09-22 06:20:00,47.8,45.3,30.38,SE,135,0.0,0.0,91,0.00,,,0.00,WUHU21636XXSP,2013-09-22 04:20:00,
2013-09-22 06:25:00,47.8,45.3,30.38,SE,135,0.0,0.0,91,0.00,,,0.00,WUHU21636XXSP,2013-09-22 04:25:00,
2013-09-22 06:30:00,47.8,45.3,30.38,ESE,113,0.0,0.0,91,0.00,,,0.00,WUHU21636XXSP,2013-09-22 04:30:00,
2013-09-22 06:35:00,47.8,45.3,30.38,ESE,113,0.0,0.0,91,0.00,,,0.00,WUHU21636XXSP,2013-09-22 04:35:00,
2013-09-22 06:40:00,47.8,45.3,30.38,SE,135,0.0,0.0,91,0.00,,,0.00,WUHU21636XXSP,2013-09-22 04:40:00,
2013-09-22 06:45:00,47.7,45.2,30.38,SE,135,1.3,1.3,91,0.00,,,0.00,WUHU21636XXSP,2013-09-22 04:45:00,
2013-09-22 06:50:00,47.7,45.2,30.37,ESE,113,0.7,1.3,91,0.00,,,0.00,WUHU21636XXSP,2013-09-22 04:50:00,
2013-09-22 06:55:00,47.8,45.3,30.38,SE,135,0.0,1.3,91,0.00,,,0.00,WUHU21636XXSP,2013-09-22 04:55:00,
2013-09-22 07:00:00,47.8,45.3,30.37,West,270,0.0,0.7,91,0.00,,,0.00,WUHU21636XXSP,2013-09-22 05:00:00,
2013-09-22 07:05:00,47.8,45.3,30.37,SSE,158,0.0,0.0,91,0.00,,,0.00,WUHU21636XXSP,2013-09-22 05:05:00,
2013-09-22 07:10:00,48.0,45.5,30.38,ESE,113,0.0,0.0,91,0.00,,,0.00,WUHU21636XXSP,2013-09-22 05:10:00,
2013-09-22 07:15:00,48.2,45.9,30.38,NW,315,0.0,0.0,92,0.00,,,0.00,WUHU21636XXSP,2013-09-22 05:15:00,
2013-09-22 07:20:00,48.4,46.1,30.37,NW,315,0.0,0.0,92,0.00,,,0.00,WUHU21636XXSP,2013-09-22 05:20:00,
2013-09-22 07:25:00,48.4,46.1,30.38,SSE,158,1.1,1.1,92,0.00,,,0.00,WUHU21636XXSP,2013-09-22 05:25:00,
2013-09-22 07:30:00,48.7,46.4,30.38,SE,135,1.6,1.6,92,0.00,,,0.00,WUHU21636XXSP,2013-09-22 05:30:00,
2013-09-22 07:35:00,48.7,46.4,30.38,ESE,113,0.0,1.6,92,0.00,,,0.00,WUHU21636XXSP,2013-09-22 05:35:00,
2013-09-22 07:40:00,48.9,46.6,30.38,WNW,293,0.0,1.6,92,0.00,,,0.00,WUHU21636XXSP,2013-09-22 05:40:00,
2013-09-22 07:45:00,49.1,46.8,30.38,NW,315,0.0,0.0,92,0.00,,,0.00,WUHU21636XXSP,2013-09-22 05:45:00,
2013-09-22 07:50:00,49.1,46.8,30.38,SE,135,0.4,0.4,92,0.00,,,0.00,WUHU21636XXSP,2013-09-22 05:50:00,
2013-09-22 07:55:00,49.3,47.0,30.38,ESE,113,2.0,2.0,92,0.00,,,0.00,WUHU21636XXSP,2013-09-22 05:55:00,
2013-09-22 08:00:00,49.5,47.2,30.38,SE,135,0.0,2.0,92,0.00,,,0.00,WUHU21636XXSP,2013-09-22 06:00:00,
2013-09-22 08:05:00,49.6,47.3,30.38,SE,135,1.3,2.0,92,0.00,,,0.00,WUHU21636XXSP,2013-09-22 06:05:00,
2013-09-22 08:10:00,49.6,47.3,30.38,NW,315,0.0,1.3,92,0.00,,,0.00,WUHU21636XXSP,2013-09-22 06:10:00,
2013-09-22 08:15:00,49.8,47.5,30.38,WNW,293,0.0,1.3,92,0.00,,,0.00,WUHU21636XXSP,2013-09-22 06:15:00,
2013-09-22 08:20:00,50.0,47.7,30.38,SE,135,0.4,0.4,92,0.00,,,0.00,WUHU21636XXSP,2013-09-22 06:20:00,
2013-09-22 08:25:00,50.2,47.6,30.38,SE,135,1.1,1.1,91,0.00,,,0.00,WUHU21636XXSP,2013-09-22 06:25:00,
2013-09-22 08:30:00,50.4,47.8,30.38,SE,135,0.0,1.1,91,0.00,,,0.00,WUHU21636XXSP,2013-09-22 06:30:00,
2013-09-22 08:35:00,50.5,47.9,30.38,SE,135,0.0,1.1,91,0.00,,,0.00,WUHU21636XXSP,2013-09-22 06:35:00,
2013-09-22 08:40:00,50.9,48.3,30.38,SE,135,0.7,0.7,91,0.00,,,0.00,WUHU21636XXSP,2013-09-22 06:40:00,
2013-09-22 08:45:00,51.1,48.5,30.38,SE,135,0.0,0.7,91,0.00,,,0.00,WUHU21636XXSP,2013-09-22 06:45:00,
2013-09-22 08:50:00,51.4,48.8,30.38,SE,135,0.0,0.7,91,0.00,,,0.00,WUHU21636XXSP,2013-09-22 06:50:00,
2013-09-22 08:55:00,51.6,49.0,30.38,SE,135,0.0,0.0,91,0.00,,,0.00,WUHU21636XXSP,2013-09-22 06:55:00,
2013-09-22 09:00:00,52.0,49.4,30.38,SE,135,0.4,0.4,91,0.00,,,0.00,WUHU21636XXSP,2013-09-22 07:00:00,
2013-09-22 09:05:00,52.2,49.6,30.38,NW,315,0.0,0.4,91,0.00,,,0.00,WUHU21636XXSP,2013-09-22 07:05:00,
2013-09-22 09:10:00,52.5,49.9,30.38,WNW,293,0.0,0.4,91,0.00,,,0.00,WUHU21636XXSP,2013-09-22 07:10:00,
2013-09-22 09:15:00,52.7,49.8,30.38,WNW,293,0.0,0.0,90,0.00,,,0.00,WUHU21636XXSP,2013-09-22 07:15:00,
2013-09-22 09:20:00,52.9,50.0,30.38,WNW,293,0.0,0.0,90,0.00,,,0.00,WUHU21636XXSP,2013-09-22 07:20:00,
2013-09-22 09:25:00,53.2,50.3,30.38,SE,135,1.1,1.1,90,0.00,,,0.00,WUHU21636XXSP,2013-09-22 07:25:00,
2013-09-22 09:30:00,53.6,50.4,30.38,NNW,338,0.0,1.1,89,0.00,,,0.00,WUHU21636XXSP,2013-09-22 07:30:00,
2013-09-22 09:35:00,54.0,51.1,30.38,NNW,338,0.0,1.1,90,0.00,,,0.00,WUHU21636XXSP,2013-09-22 07:35:00,
2013-09-22 09:40:00,54.1,50.9,30.38,SE,135,0.9,0.9,89,0.00,,,0.00,WUHU21636XXSP,2013-09-22 07:40:00,
2013-09-22 09:45:00,54.7,51.2,30.38,WNW,293,0.0,0.9,88,0.00,,,0.00,WUHU21636XXSP,2013-09-22 07:45:00,
2013-09-22 09:50:00,54.7,50.9,30.38,WNW,293,0.0,0.9,87,0.00,,,0.00,WUHU21636XXSP,2013-09-22 07:50:00,
2013-09-22 09:55:00,55.0,51.2,30.38,SE,135,0.0,0.0,87,0.00,,,0.00,WUHU21636XXSP,2013-09-22 07:55:00,
2013-09-22 10:00:00,55.2,51.1,30.39,SE,135,0.0,0.0,86,0.00,,,0.00,WUHU21636XXSP,2013-09-22 08:00:00,
2013-09-22 10:05:00,55.2,50.1,30.39,SE,135,0.0,0.0,83,0.00,,,0.00,WUHU21636XXSP,2013-09-22 08:05:00,
2013-09-22 10:10:00,55.6,50.5,30.39,SE,135,0.0,0.0,83,0.00,,,0.00,WUHU21636XXSP,2013-09-22 08:10:00,
2013-09-22 10:15:00,55.8,50.7,30.39,SE,135,0.0,0.0,83,0.00,,,0.00,WUHU21636XXSP,2013-09-22 08:15:00,
2013-09-22 10:20:00,55.9,50.5,30.38,SE,135,0.0,0.0,82,0.00,,,0.00,WUHU21636XXSP,2013-09-22 08:20:00,
2013-09-22 10:25:00,56.1,51.0,30.38,SE,135,0.0,0.0,83,0.00,,,0.00,WUHU21636XXSP,2013-09-22 08:25:00,
2013-09-22 10:30:00,56.3,50.6,30.38,SE,135,0.4,0.4,81,0.00,,,0.00,WUHU21636XXSP,2013-09-22 08:30:00,
2013-09-22 10:35:00,56.7,51.0,30.38,ESE,113,0.0,0.4,81,0.00,,,0.00,WUHU21636XXSP,2013-09-22 08:35:00,
2013-09-22 10:40:00,57.0,50.9,30.37,SE,135,0.0,0.4,80,0.00,,,0.00,WUHU21636XXSP,2013-09-22 08:40:00,
2013-09-22 10:45:00,58.1,51.7,30.37,SE,135,2.0,2.0,79,0.00,,,0.00,WUHU21636XXSP,2013-09-22 08:45:00,
2013-09-22 10:54:00,58.6,51.8,30.37,SE,135,0.0,2.0,78,0.00,,,0.00,WUHU21636XXSP,2013-09-22 08:54:00,
2013-09-22 10:59:00,58.8,52.0,30.37,SE,135,0.9,2.5,78,0.00,,,0.00,WUHU21636XXSP,2013-09-22 08:59:00,
2013-09-22 11:00:00,59.0,52.2,30.37,West,270,0.9,2.5,78,0.00,,,0.00,WUHU21636XXSP,2013-09-22 09:00:00,
2013-09-22 11:05:00,59.4,52.3,30.37,SE,135,0.0,2.5,77,0.00,,,0.00,WUHU21636XXSP,2013-09-22 09:05:00,
2013-09-22 11:10:00,59.5,52.7,30.37,SE,135,0.0,0.9,78,0.00,,,0.00,WUHU21636XXSP,2013-09-22 09:10:00,
2013-09-22 11:15:00,59.7,52.2,30.36,SSE,158,0.0,0.0,76,0.00,,,0.00,WUHU21636XXSP,2013-09-22 09:15:00,
2013-09-22 11:20:00,60.1,52.6,30.36,SE,135,0.0,0.0,76,0.00,,,0.00,WUHU21636XXSP,2013-09-22 09:20:00,
2013-09-22 11:25:00,60.4,52.9,30.36,SE,135,1.1,1.1,76,0.00,,,0.00,WUHU21636XXSP,2013-09-22 09:25:00,
2013-09-22 11:30:00,60.4,52.8,30.35,SE,135,1.0,1.0,76,0.00,FEW,,0.00,WeatherDisplay:10.37,2013-09-22 09:30:00,
2013-09-22 11:35:00,61.2,52.2,30.36,WNW,293,2.2,2.2,72,0.00,,,0.00,WUHU21636XXSP,2013-09-22 09:35:00,
2013-09-22 11:40:00,61.2,52.1,30.35,SW,228,2.0,2.0,72,0.00,FEW,,0.00,WeatherDisplay:10.37,2013-09-22 09:40:00,
2013-09-22 11:45:00,61.7,52.0,30.36,NW,315,2.2,2.2,70,0.00,,,0.00,WUHU21636XXSP,2013-09-22 09:45:00,
2013-09-22 11:50:00,61.7,52.3,30.36,NW,315,1.6,2.2,71,0.00,,,0.00,WUHU21636XXSP,2013-09-22 09:50:00,
2013-09-22 11:51:00,61.7,51.8,30.35,WNW,303,2.0,2.0,70,0.00,FEW,,0.00,WeatherDisplay:10.37,2013-09-22 09:51:00,
2013-09-22 11:55:00,61.7,52.0,30.36,NW,315,4.5,4.5,70,0.00,,,0.00,WUHU21636XXSP,2013-09-22 09:55:00,
2013-09-22 12:00:00,61.7,51.8,30.35,NW,315,5.0,5.0,70,0.00,FEW,,0.00,WeatherDisplay:10.37,2013-09-22 10:00:00,
2013-09-22 12:05:00,62.1,52.3,30.36,NW,315,2.5,4.5,70,0.00,,,0.00,WUHU21636XXSP,2013-09-22 10:05:00,
2013-09-22 12:10:00,62.1,52.2,30.35,WNW,301,2.0,4.0,70,0.00,FEW,,0.00,WeatherDisplay:10.37,2013-09-22 10:10:00,
2013-09-22 12:15:00,62.4,52.6,30.36,WNW,293,2.5,2.5,70,0.00,,,0.00,WUHU21636XXSP,2013-09-22 10:15:00,
2013-09-22 12:20:00,63.0,52.8,30.36,WNW,293,0.7,2.5,69,0.00,,,0.00,WUHU21636XXSP,2013-09-22 10:20:00,
2013-09-22 12:21:00,62.4,52.5,30.35,NW,304,2.0,2.0,70,0.00,BKN,,0.00,WeatherDisplay:10.37,2013-09-22 10:21:00,
2013-09-22 12:25:00,63.0,52.8,30.36,NW,315,0.0,2.5,69,0.00,,,0.00,WUHU21636XXSP,2013-09-22 10:25:00,
2013-09-22 12:30:00,63.3,52.3,30.35,WNW,293,2.7,2.7,67,0.00,,,0.00,WUHU21636XXSP,2013-09-22 10:30:00,
2013-09-22 12:31:00,63.0,52.6,30.35,NW,304,0.0,1.0,69,0.00,BKN,,0.00,WeatherDisplay:10.37,2013-09-22 10:31:00,
2013-09-22 12:35:00,63.5,52.5,30.35,WNW,293,0.0,2.7,67,0.00,,,0.00,WUHU21636XXSP,2013-09-22 10:35:00,
2013-09-22 12:40:00,63.5,52.3,30.34,WNW,299,0.0,3.0,67,0.00,BKN,,0.00,WeatherDisplay:10.37,2013-09-22 10:40:00,
2013-09-22 12:45:00,63.0,52.0,30.35,SSE,158,0.9,0.9,67,0.00,,,0.00,WUHU21636XXSP,2013-09-22 10:45:00,
2013-09-22 12:50:00,63.0,51.8,30.34,West,275,1.0,1.0,67,0.00,BKN,,0.00,WeatherDisplay:10.37,2013-09-22 10:50:00,
2013-09-22 12:55:00,62.2,51.3,30.35,WNW,293,2.5,2.5,67,0.00,,,0.00,WUHU21636XXSP,2013-09-22 10:55:00,
2013-09-22 13:00:00,62.4,53.0,30.35,WNW,293,0.9,2.5,71,0.00,,,0.00,WUHU21636XXSP,2013-09-22 11:00:00,
2013-09-22 13:05:00,62.4,53.4,30.35,WNW,293,0.4,2.5,72,0.00,,,0.00,WUHU21636XXSP,2013-09-22 11:05:00,
2013-09-22 13:10:00,62.2,53.6,30.35,WNW,293,0.0,0.9,73,0.00,,,0.00,WUHU21636XXSP,2013-09-22 11:10:00,
2013-09-22 13:11:00,62.4,53.3,30.34,WNW,292,0.0,1.0,72,0.00,BKN,,0.00,WeatherDisplay:10.37,2013-09-22 11:11:00,
2013-09-22 13:15:00,63.0,54.0,30.35,WNW,293,0.0,0.4,72,0.00,,,0.00,WUHU21636XXSP,2013-09-22 11:15:00,
2013-09-22 13:20:00,63.0,53.8,30.34,WNW,292,0.0,0.0,72,0.00,BKN,,0.00,WeatherDisplay:10.37,2013-09-22 11:20:00,
2013-09-22 13:25:00,64.2,51.1,30.35,NW,315,2.7,2.7,62,0.00,,,0.00,WUHU21636XXSP,2013-09-22 11:25:00,
2013-09-22 13:30:00,64.4,49.9,30.35,NW,315,3.8,3.8,59,0.00,,,0.00,WUHU21636XXSP,2013-09-22 11:30:00,
2013-09-22 13:32:00,64.2,50.9,30.34,WNW,302,2.0,3.0,62,0.00,BKN,,0.00,WeatherDisplay:10.37,2013-09-22 11:32:00,
2013-09-22 13:35:00,64.0,50.0,30.34,WNW,293,4.7,4.7,60,0.00,,,0.00,WUHU21636XXSP,2013-09-22 11:35:00,
2013-09-22 13:40:00,63.7,50.1,30.34,WNW,293,2.5,4.7,61,0.00,,,0.00,WUHU21636XXSP,2013-09-22 11:40:00,
2013-09-22 13:41:00,64.0,49.9,30.33,WNW,302,5.0,5.0,60,0.00,BKN,,0.00,WeatherDisplay:10.37,2013-09-22 11:41:00,
2013-09-22 13:45:00,64.0,51.3,30.34,WNW,293,1.8,4.7,63,0.00,,,0.00,WUHU21636XXSP,2013-09-22 11:45:00,
2013-09-22 13:50:00,64.2,50.6,30.34,WNW,293,0.0,2.5,61,0.00,,,0.00,WUHU21636XXSP,2013-09-22 11:50:00,
2013-09-22 13:51:00,64.0,51.2,30.33,WNW,292,2.0,2.0,63,0.00,BKN,,0.00,WeatherDisplay:10.37,2013-09-22 11:51:00,
2013-09-22 13:55:00,64.6,50.5,30.34,NW,315,2.2,2.2,60,0.00,,,0.00,WUHU21636XXSP,2013-09-22 11:55:00,
2013-09-22 14:00:00,64.6,50.4,30.33,NW,304,2.0,2.0,60,0.00,BKN,,0.00,WeatherDisplay:10.37,2013-09-22 12:00:00,
2013-09-22 14:05:00,64.9,50.8,30.33,NW,315,0.0,4.3,60,0.00,,,0.00,WUHU21636XXSP,2013-09-22 12:05:00,
2013-09-22 14:10:00,64.9,50.7,30.32,WNW,297,0.0,5.0,60,0.00,BKN,,0.00,WeatherDisplay:10.37,2013-09-22 12:10:00,
2013-09-22 14:15:00,65.5,50.9,30.32,WNW,293,3.1,3.4,59,0.00,,,0.00,WUHU21636XXSP,2013-09-22 12:15:00,
2013-09-22 14:20:00,65.5,50.8,30.32,SSW,204,3.0,3.0,59,0.00,BKN,,0.00,WeatherDisplay:10.37,2013-09-22 12:20:00,
2013-09-22 14:25:00,64.6,49.1,30.33,NW,315,0.0,3.1,57,0.00,,,0.00,WUHU21636XXSP,2013-09-22 12:25:00,
2013-09-22 14:30:00,64.0,49.1,30.33,WNW,293,2.7,2.7,58,0.00,,,0.00,WUHU21636XXSP,2013-09-22 12:30:00,
2013-09-22 14:31:00,64.6,49.0,30.32,WNW,300,0.0,2.0,57,0.00,BKN,,0.00,WeatherDisplay:10.37,2013-09-22 12:31:00,
2013-09-22 14:35:00,64.2,50.6,30.33,WNW,293,0.0,2.7,61,0.00,,,0.00,WUHU21636XXSP,2013-09-22 12:35:00,
2013-09-22 14:40:00,64.2,50.2,30.32,WNW,293,0.0,2.7,60,0.00,,,0.00,WUHU21636XXSP,2013-09-22 12:40:00,
2013-09-22 14:41:00,64.2,50.5,30.32,WNW,297,0.0,3.0,61,0.00,BKN,,0.00,WeatherDisplay:10.37,2013-09-22 12:41:00,
2013-09-22 14:45:00,64.6,50.1,30.32,WNW,293,2.0,2.0,59,0.00,,,0.00,WUHU21636XXSP,2013-09-22 12:45:00,
2013-09-22 14:50:00,65.3,50.3,30.32,WNW,293,0.0,2.0,58,0.00,,,0.00,WUHU21636XXSP,2013-09-22 12:50:00,
2013-09-22 14:51:00,64.6,49.9,30.32,WNW,292,2.0,2.0,59,0.00,BKN,,0.00,WeatherDisplay:10.37,2013-09-22 12:51:00,
2013-09-22 14:55:00,65.7,51.6,30.33,NW,315,1.3,2.0,60,0.00,,,0.00,WUHU21636XXSP,2013-09-22 12:55:00,
2013-09-22 15:00:00,66.6,50.0,30.33,WNW,293,1.6,1.6,55,0.00,,,0.00,WUHU21636XXSP,2013-09-22 13:00:00,
2013-09-22 15:01:00,65.7,51.4,30.32,WNW,303,1.0,1.0,60,0.00,BKN,,0.00,WeatherDisplay:10.37,2013-09-22 13:01:00,
2013-09-22 15:05:00,66.0,50.0,30.33,NW,315,1.1,1.6,56,0.00,,,0.00,WUHU21636XXSP,2013-09-22 13:05:00,
2013-09-22 15:10:00,66.0,49.9,30.32,NW,304,1.0,2.0,56,0.00,BKN,,0.00,WeatherDisplay:10.37,2013-09-22 13:10:00,
2013-09-22 15:15:00,64.9,49.4,30.33,NW,315,0.0,1.1,57,0.00,,,0.00,WUHU21636XXSP,2013-09-22 13:15:00,
2013-09-22 15:20:00,64.9,49.3,30.32,NW,308,0.0,0.0,57,0.00,BKN,,0.00,WeatherDisplay:10.37,2013-09-22 13:20:00,
2013-09-22 15:25:00,64.0,50.0,30.32,WNW,293,1.8,1.8,60,0.00,,,0.00,WUHU21636XXSP,2013-09-22 13:25:00,
2013-09-22 15:30:00,63.7,50.1,30.32,WNW,293,2.2,2.2,61,0.00,,,0.00,WUHU21636XXSP,2013-09-22 13:30:00,
2013-09-22 15:35:00,63.3,50.2,30.32,NW,315,2.0,2.2,62,0.00,,,0.00,WUHU21636XXSP,2013-09-22 13:35:00,
2013-09-22 15:40:00,63.3,50.1,30.31,WNW,303,2.0,2.0,62,0.00,BKN,,0.00,WeatherDisplay:10.37,2013-09-22 13:40:00,
2013-09-22 15:45:00,63.1,50.5,30.32,WNW,293,0.4,2.0,63,0.00,,,0.00,WUHU21636XXSP,2013-09-22 13:45:00,
2013-09-22 15:50:00,62.8,50.6,30.32,WNW,293,4.5,4.5,64,0.00,,,0.00,WUHU21636XXSP,2013-09-22 13:50:00,
2013-09-22 15:51:00,63.1,50.3,30.31,WNW,301,0.0,0.0,63,0.00,BKN,,0.00,WeatherDisplay:10.37,2013-09-22 13:51:00,
2013-09-22 15:55:00,62.8,50.6,30.32,WNW,293,3.4,4.5,64,0.00,,,0.00,WUHU21636XXSP,2013-09-22 13:55:00,
2013-09-22 16:00:00,62.8,50.4,30.31,WNW,292,3.0,5.0,64,0.00,BKN,,0.00,WeatherDisplay:10.37,2013-09-22 14:00:00,
2013-09-22 16:05:00,62.4,50.6,30.32,WNW,293,0.0,3.4,65,0.00,,,0.00,WUHU21636XXSP,2013-09-22 14:05:00,
2013-09-22 16:10:00,62.4,50.5,30.31,WNW,292,0.0,0.0,65,0.00,BKN,,0.00,WeatherDisplay:10.37,2013-09-22 14:10:00,
2013-09-22 16:15:00,62.4,51.5,30.32,WNW,293,0.0,1.6,67,0.00,,,0.00,WUHU21636XXSP,2013-09-22 14:15:00,
2013-09-22 16:20:00,62.4,51.3,30.31,WNW,292,0.0,2.0,67,0.00,BKN,,0.00,WeatherDisplay:10.37,2013-09-22 14:20:00,
2013-09-22 16:25:00,62.2,51.3,30.32,NW,315,2.0,2.0,67,0.00,,,0.00,WUHU21636XXSP,2013-09-22 14:25:00,
2013-09-22 16:30:00,62.2,51.1,30.31,NW,315,2.0,2.0,67,0.00,BKN,,0.00,WeatherDisplay:10.37,2013-09-22 14:30:00,
2013-09-22 16:35:00,62.2,51.7,30.31,SW,225,0.4,2.0,68,0.00,,,0.00,WUHU21636XXSP,2013-09-22 14:35:00,
2013-09-22 16:40:00,62.2,51.5,30.30,WNW,302,0.0,0.0,68,0.00,OVC,,0.00,WeatherDisplay:10.37,2013-09-22 14:40:00,
2013-09-22 16:45:00,61.9,51.0,30.31,WNW,293,0.0,0.4,67,0.00,,,0.00,WUHU21636XXSP,2013-09-22 14:45:00,
2013-09-22 16:50:00,61.9,51.4,30.31,NNW,338,1.1,1.1,68,0.00,,,0.00,WUHU21636XXSP,2013-09-22 14:50:00,
2013-09-22 16:55:00,61.9,51.0,30.31,WNW,293,2.0,2.0,67,0.00,,,0.00,WUHU21636XXSP,2013-09-22 14:55:00,
2013-09-22 17:00:00,61.9,51.4,30.31,WNW,293,0.0,2.0,68,0.00,,,0.00,WUHU21636XXSP,2013-09-22 15:00:00,
2013-09-22 17:05:00,61.7,50.8,30.31,WNW,293,0.0,2.0,67,0.00,,,0.00,WUHU21636XXSP,2013-09-22 15:05:00,
2013-09-22 17:10:00,61.7,50.6,30.30,WNW,292,0.0,2.0,67,0.00,OVC,,0.00,WeatherDisplay:10.37,2013-09-22 15:10:00,
2013-09-22 17:15:00,61.9,51.0,30.31,NW,315,2.0,2.0,67,0.00,,,0.00,WUHU21636XXSP,2013-09-22 15:15:00,
2013-09-22 17:20:00,61.5,51.0,30.31,NW,315,0.0,2.0,68,0.00,,,0.00,WUHU21636XXSP,2013-09-22 15:20:00,
2013-09-22 17:21:00,61.9,50.8,30.30,NW,308,2.0,2.0,67,0.00,OVC,,0.00,WeatherDisplay:10.37,2013-09-22 15:21:00,
2013-09-22 17:25:00,61.5,51.0,30.31,WNW,293,0.0,2.0,68,0.00,,,0.00,WUHU21636XXSP,2013-09-22 15:25:00,
2013-09-22 17:30:00,61.5,51.4,30.30,WNW,293,0.7,0.7,69,0.00,,,0.00,WUHU21636XXSP,2013-09-22 15:30:00,
2013-09-22 17:31:00,61.5,50.9,30.30,NW,307,0.0,0.0,68,0.00,OVC,,0.00,WeatherDisplay:10.37,2013-09-22 15:31:00,
2013-09-22 17:35:00,61.5,51.4,30.31,WNW,293,2.2,2.2,69,0.00,,,0.00,WUHU21636XXSP,2013-09-22 15:35:00,
2013-09-22 17:40:00,61.5,51.3,30.30,WNW,292,2.0,2.0,69,0.00,OVC,,0.00,WeatherDisplay:10.37,2013-09-22 15:40:00,
2013-09-22 17:45:00,61.3,51.6,30.30,WNW,293,0.0,2.2,70,0.00,,,0.00,WUHU21636XXSP,2013-09-22 15:45:00,
2013-09-22 17:50:00,61.3,51.5,30.30,WNW,303,0.0,0.0,70,0.00,OVC,,0.00,WeatherDisplay:10.37,2013-09-22 15:50:00,
2013-09-22 17:55:00,61.3,51.6,30.30,NW,315,2.0,2.0,70,0.00,,,0.00,WUHU21636XXSP,2013-09-22 15:55:00,
2013-09-22 18:00:00,61.3,51.6,30.30,WNW,293,0.4,2.0,70,0.00,,,0.00,WUHU21636XXSP,2013-09-22 16:00:00,
2013-09-22 18:05:00,61.3,52.0,30.30,WNW,293,0.0,2.0,71,0.00,,,0.00,WUHU21636XXSP,2013-09-22 16:05:00,
2013-09-22 18:10:00,61.3,51.9,30.29,WNW,292,0.0,2.0,71,0.00,OVC,,0.00,WeatherDisplay:10.37,2013-09-22 16:10:00,
2013-09-22 18:15:00,61.2,51.9,30.30,WNW,293,0.0,1.1,71,0.00,,,0.00,WUHU21636XXSP,2013-09-22 16:15:00,
2013-09-22 18:20:00,61.2,51.7,30.29,WNW,292,0.0,1.0,71,0.00,OVC,,0.00,WeatherDisplay:10.37,2013-09-22 16:20:00,
2013-09-22 18:25:00,61.0,51.7,30.29,WNW,293,0.0,1.1,71,0.00,,,0.00,WUHU21636XXSP,2013-09-22 16:25:00,
2013-09-22 18:30:00,61.0,51.7,30.29,NW,315,0.0,1.1,71,0.00,,,0.00,WUHU21636XXSP,2013-09-22 16:30:00,
2013-09-22 18:31:00,61.0,51.5,30.29,SW,227,0.0,1.0,71,0.00,OVC,,0.00,WeatherDisplay:10.37,2013-09-22 16:31:00,
2013-09-22 18:35:00,61.0,51.7,30.29,WNW,293,0.0,0.0,71,0.00,,,0.00,WUHU21636XXSP,2013-09-22 16:35:00,
2013-09-22 18:40:00,60.8,51.8,30.29,WNW,293,0.0,0.0,72,0.00,,,0.00,WUHU21636XXSP,2013-09-22 16:40:00,
2013-09-22 18:45:00,60.6,51.7,30.29,WNW,293,0.0,0.0,72,0.00,,,0.00,WUHU21636XXSP,2013-09-22 16:45:00,
2013-09-22 18:50:00,60.6,51.5,30.29,WNW,292,0.0,0.0,72,0.00,BKN,,0.00,WeatherDisplay:10.37,2013-09-22 16:50:00,
2013-09-22 18:55:00,60.4,51.5,30.29,West,270,0.0,0.4,72,0.00,,,0.00,WUHU21636XXSP,2013-09-22 16:55:00,
2013-09-22 19:00:00,60.4,51.4,30.28,WNW,284,0.0,0.0,72,0.00,BKN,,0.00,WeatherDisplay:10.37,2013-09-22 17:00:00,
2013-09-22 19:05:00,60.4,51.8,30.29,SE,135,0.4,0.9,73,0.00,,,0.00,WUHU21636XXSP,2013-09-22 17:05:00,
2013-09-22 19:10:00,60.4,51.8,30.29,SE,135,0.0,0.9,73,0.00,,,0.00,WUHU21636XXSP,2013-09-22 17:10:00,
2013-09-22 19:11:00,60.4,51.7,30.28,SE,135,0.0,1.0,73,0.00,BKN,,0.00,WeatherDisplay:10.37,2013-09-22 17:11:00,
2013-09-22 19:15:00,60.3,51.7,30.29,NW,315,0.0,0.4,73,0.00,,,0.00,WUHU21636XXSP,2013-09-22 17:15:00,
2013-09-22 19:20:00,60.3,51.6,30.28,NW,315,0.0,0.0,73,0.00,BKN,,0.00,WeatherDisplay:10.37,2013-09-22 17:20:00,
2013-09-22 19:25:00,59.9,51.3,30.29,WNW,293,2.2,2.2,73,0.00,,,0.00,WUHU21636XXSP,2013-09-22 17:25:00,
2013-09-22 19:30:00,59.7,51.5,30.28,West,270,0.0,2.2,74,0.00,,,0.00,WUHU21636XXSP,2013-09-22 17:30:00,
2013-09-22 19:31:00,59.9,51.2,30.28,WNW,292,2.0,2.0,73,0.00,BKN,,0.00,WeatherDisplay:10.37,2013-09-22 17:31:00,
2013-09-22 19:35:00,59.7,51.5,30.28,WNW,293,3.8,3.8,74,0.00,,,0.00,WUHU21636XXSP,2013-09-22 17:35:00,
2013-09-22 19:40:00,59.5,51.3,30.28,NW,315,0.0,3.8,74,0.00,,,0.00,WUHU21636XXSP,2013-09-22 17:40:00,
2013-09-22 19:45:00,59.5,51.7,30.28,NW,315,1.3,3.8,75,0.00,,,0.00,WUHU21636XXSP,2013-09-22 17:45:00,
2013-09-22 19:50:00,59.5,51.6,30.27,NW,305,1.0,4.0,75,0.00,BKN,,0.00,WeatherDisplay:10.37,2013-09-22 17:50:00,
2013-09-22 19:55:00,59.2,51.4,30.29,WNW,293,2.0,4.9,75,0.00,,,0.00,WUHU21636XXSP,2013-09-22 17:55:00,
2013-09-22 20:00:00,59.2,51.3,30.28,WNW,293,2.0,5.0,75,0.00,BKN,,0.00,WeatherDisplay:10.37,2013-09-22 18:00:00,
2013-09-22 20:05:00,58.8,51.3,30.29,SE,135,3.6,3.6,76,0.00,,,0.00,WUHU21636XXSP,2013-09-22 18:05:00,
2013-09-22 20:10:00,58.8,51.3,30.28,SSE,163,3.0,4.0,76,0.00,BKN,,0.00,WeatherDisplay:10.37,2013-09-22 18:10:00,
2013-09-22 20:15:00,58.6,51.5,30.29,ESE,113,0.0,3.6,77,0.00,,,0.00,WUHU21636XXSP,2013-09-22 18:15:00,
2013-09-22 20:20:00,58.6,51.4,30.28,SE,129,0.0,0.0,77,0.00,SCT,,0.00,WeatherDisplay:10.37,2013-09-22 18:20:00,
2013-09-22 20:25:00,58.6,51.5,30.29,WNW,293,4.0,4.0,77,0.00,,,0.00,WUHU21636XXSP,2013-09-22 18:25:00,
2013-09-22 20:30:00,58.6,51.4,30.28,WNW,292,3.0,4.0,77,0.00,SCT,,0.00,WeatherDisplay:10.37,2013-09-22 18:30:00,
2013-09-22 20:35:00,58.6,51.5,30.29,ESE,113,1.3,4.0,77,0.00,,,0.00,WUHU21636XXSP,2013-09-22 18:35:00,
2013-09-22 20:40:00,58.6,51.4,30.28,NNE,13,1.0,1.0,77,0.00,SCT,,0.00,WeatherDisplay:10.37,2013-09-22 18:40:00,
2013-09-22 20:45:00,58.3,51.5,30.29,SE,135,0.0,1.3,78,0.00,,,0.00,WUHU21636XXSP,2013-09-22 18:45:00,
2013-09-22 20:50:00,58.3,51.4,30.28,SE,135,0.0,1.0,78,0.00,BKN,,0.00,WeatherDisplay:10.37,2013-09-22 18:50:00,
2013-09-22 20:55:00,58.3,51.5,30.29,ESE,113,0.0,2.0,78,0.00,,,0.00,WUHU21636XXSP,2013-09-22 18:55:00,
2013-09-22 21:00:00,58.3,51.4,30.28,SE,126,0.0,2.0,78,0.00,BKN,,0.00,WeatherDisplay:10.37,2013-09-22 19:00:00,
2013-09-22 21:05:00,58.3,51.5,30.28,North,0,0.0,0.0,78,0.00,,,0.00,WUHU21636XXSP,2013-09-22 19:05:00,
2013-09-22 21:10:00,58.3,51.4,30.27,ENE,64,0.0,0.0,78,0.00,BKN,,0.00,WeatherDisplay:10.37,2013-09-22 19:10:00,
2013-09-22 21:15:00,58.3,51.9,30.28,WNW,293,0.0,0.9,79,0.00,,,0.00,WUHU21636XXSP,2013-09-22 19:15:00,
2013-09-22 21:20:00,58.3,51.9,30.28,NW,315,0.0,0.9,79,0.00,,,0.00,WUHU21636XXSP,2013-09-22 19:20:00,
2013-09-22 21:25:00,58.3,51.9,30.28,NW,315,0.0,0.0,79,0.00,,,0.00,WUHU21636XXSP,2013-09-22 19:25:00,
2013-09-22 21:30:00,58.3,51.9,30.27,ESE,113,0.0,0.0,79,0.00,,,0.00,WUHU21636XXSP,2013-09-22 19:30:00,
2013-09-22 21:35:00,58.3,51.9,30.27,WNW,293,0.0,0.0,79,0.00,,,0.00,WUHU21636XXSP,2013-09-22 19:35:00,
2013-09-22 21:40:00,58.3,51.9,30.28,NW,315,0.0,0.0,79,0.00,,,0.00,WUHU21636XXSP,2013-09-22 19:40:00,
2013-09-22 21:45:00,58.3,51.9,30.27,NW,315,0.0,0.0,79,0.00,,,0.00,WUHU21636XXSP,2013-09-22 19:45:00,
2013-09-22 21:50:00,58.3,51.9,30.27,WNW,293,0.0,0.0,79,0.00,,,0.00,WUHU21636XXSP,2013-09-22 19:50:00,
2013-09-22 21:55:00,58.5,52.1,30.27,WNW,293,0.0,0.0,79,0.00,,,0.00,WUHU21636XXSP,2013-09-22 19:55:00,
2013-09-22 22:00:00,58.5,52.1,30.27,WNW,293,0.0,0.0,79,0.00,,,0.00,WUHU21636XXSP,2013-09-22 20:00:00,
2013-09-22 22:05:00,58.5,51.7,30.28,WNW,293,1.8,1.8,78,0.00,,,0.00,WUHU21636XXSP,2013-09-22 20:05:00,
2013-09-22 22:10:00,58.3,51.5,30.28,NW,315,0.7,1.8,78,0.00,,,0.00,WUHU21636XXSP,2013-09-22 20:10:00,
2013-09-22 22:15:00,58.5,51.7,30.28,WNW,293,0.9,1.8,78,0.00,,,0.00,WUHU21636XXSP,2013-09-22 20:15:00,
2013-09-22 22:20:00,58.5,51.7,30.28,NW,315,0.0,0.9,78,0.00,,,0.00,WUHU21636XXSP,2013-09-22 20:20:00,
2013-09-22 22:25:00,58.6,51.8,30.28,WNW,293,3.6,3.6,78,0.00,,,0.00,WUHU21636XXSP,2013-09-22 20:25:00,
2013-09-22 22:30:00,58.6,51.8,30.28,WNW,293,0.0,3.6,78,0.00,,,0.00,WUHU21636XXSP,2013-09-22 20:30:00,
2013-09-22 22:35:00,58.6,51.8,30.28,WNW,293,0.0,3.6,78,0.00,,,0.00,WUHU21636XXSP,2013-09-22 20:35:00,
2013-09-22 22:40:00,58.6,51.8,30.28,WNW,293,2.7,2.7,78,0.00,,,0.00,WUHU21636XXSP,2013-09-22 20:40:00,
2013-09-22 22:45:00,58.6,51.8,30.28,NW,315,5.6,5.6,78,0.00,,,0.00,WUHU21636XXSP,2013-09-22 20:45:00,
2013-09-22 22:50:00,58.3,51.5,30.27,West,270,0.0,5.6,78,0.00,,,0.00,WUHU21636XXSP,2013-09-22 20:50:00,
2013-09-22 22:55:00,58.3,51.5,30.27,NW,315,0.0,5.6,78,0.00,,,0.00,WUHU21636XXSP,2013-09-22 20:55:00,
2013-09-22 23:00:00,58.3,51.5,30.27,WNW,293,0.0,0.0,78,0.00,,,0.00,WUHU21636XXSP,2013-09-22 21:00:00,
2013-09-22 23:05:00,58.3,51.5,30.27,SE,135,1.6,1.6,78,0.00,,,0.00,WUHU21636XXSP,2013-09-22 21:05:00,
2013-09-22 23:10:00,58.3,51.5,30.27,WNW,293,0.0,1.6,78,0.00,,,0.00,WUHU21636XXSP,2013-09-22 21:10:00,
2013-09-22 23:15:00,58.3,51.5,30.27,WNW,293,2.5,2.5,78,0.00,,,0.00,WUHU21636XXSP,2013-09-22 21:15:00,
2013-09-22 23:20:00,58.3,51.5,30.27,South,180,0.0,2.5,78,0.00,,,0.00,WUHU21636XXSP,2013-09-22 21:20:00,
2013-09-22 23:25:00,58.3,51.5,30.27,WNW,293,0.0,2.5,78,0.00,,,0.00,WUHU21636XXSP,2013-09-22 21:25:00,
2013-09-22 23:30:00,58.3,51.5,30.27,SE,135,0.0,0.0,78,0.00,,,0.00,WUHU21636XXSP,2013-09-22 21:30:00,
2013-09-22 23:35:00,58.3,51.5,30.27,WNW,293,0.9,0.9,78,0.00,,,0.00,WUHU21636XXSP,2013-09-22 21:35:00,
2013-09-22 23:40:00,58.3,51.5,30.26,West,270,0.0,0.9,78,0.00,,,0.00,WUHU21636XXSP,2013-09-22 21:40:00,
2013-09-22 23:45:00,58.3,51.5,30.26,WNW,293,1.3,1.3,78,0.00,,,0.00,WUHU21636XXSP,2013-09-22 21:45:00,
2013-09-22 23:50:00,58.3,51.5,30.26,NW,315,0.4,1.3,78,0.00,,,0.00,WUHU21636XXSP,2013-09-22 21:50:00,
2013-09-22 23:55:00,58.3,51.5,30.26,WNW,293,0.0,1.3,78,0.00,,,0.00,WUHU21636XXSP,2013-09-22 21:55:00,